Flag for Norway Weather past 2 weeks in Larvik, Norway

37 °F


Feels Like: 30 °F
Forecast: 36 / 44 °F
Wind: 12 mph from South

Location: Torp

Current Time: Nov 28, 2015 at 8:35:15 PM

Latest Report: Nov 28, 2015 at 7:50 PM

Visibility: 10 mi

Pressure: 29.33 "Hg

Humidity: 81%

Dew point: 32 °F

Location of LarvikLocation

Historic Weather in Larvik — Graph


Larvik temperature yesterday

Maximum temperature yesterday: 50 °F (at 9:20 AM)
Minimum temperature yesterday: 45 °F (at 12:20 AM)
Average temperature yesterday: 49 °F

Past Weeks' High & Low Weather Summary

High50 °F (Nov 16, 1:50 PM)100% (Nov 13, 8:50 PM)29.95 "Hg (Nov 13, 8:50 PM)
Low14 °F (Nov 23, 12:50 AM)64% (Nov 22, 4:20 PM)29.12 "Hg (Nov 28, 4:20 AM)
Average35 °F93%29.50 "Hg
* Reported Nov 13 7:20 PM — Nov 28 7:20 PM, Larvik, Weather by CustomWeather, © 2015

Note: Actual official high and low records may vary slightly from our data, if they occured in-between our weather recording intervals... More about our weather records


Larvik weather history for previous 24 hours

Time TempWeatherWind HumidityBarometerVisibility
7:20 PM
Sat, Nov 28
37 °FClear.9 mph81%29.33 "Hg10 mi
6:50 PM36 °FClear.9 mph87%29.36 "Hg10 mi
6:20 PM36 °FClear.10 mph87%29.33 "Hg10 mi
5:50 PM37 °FClear.12 mph75%29.36 "Hg10 mi
5:20 PM37 °FClear.8 mph75%29.33 "Hg10 mi
4:50 PM37 °FClear.8 mph75%29.33 "Hg10 mi
4:20 PM37 °FClear.8 mph75%29.33 "Hg10 mi
3:50 PM37 °FClear.10 mph75%29.33 "Hg10 mi
3:20 PM39 °FSunny.10 mph70%29.33 "Hg10 mi
2:50 PM39 °FSunny.6 mph75%29.33 "Hg10 mi
2:20 PM41 °FPassing clouds.3 mph66%29.33 "HgN/A
1:50 PM41 °FPassing clouds.5 mph70%29.30 "HgN/A
1:20 PM41 °FSunny.6 mph70%29.30 "Hg10 mi
12:50 PM41 °FSunny.8 mph70%29.30 "Hg10 mi
12:20 PM39 °FSunny.7 mph81%29.30 "Hg10 mi
11:50 AM39 °FSunny.6 mph81%29.30 "Hg10 mi
11:20 AM39 °FPassing clouds.5 mph75%29.27 "HgN/A
10:50 AM39 °FPassing clouds.9 mph75%29.27 "HgN/A
10:20 AM41 °FPassing clouds.6 mph76%29.24 "HgN/A
9:50 AM41 °FSunny.8 mph87%29.24 "Hg10 mi
9:20 AM41 °FSunny.9 mph93%29.24 "Hg10 mi
8:50 AM39 °FSunny.6 mph100%29.24 "Hg10 mi
8:20 AM39 °FClear.5 mph100%29.21 "Hg10 mi
7:50 AM39 °FClear.7 mph100%29.21 "Hg10 mi
7:20 AM39 °FClear.5 mph100%29.18 "Hg10 mi
6:50 AM39 °FPassing clouds.6 mph100%29.18 "HgN/A
6:20 AM41 °FPartly cloudy.6 mph100%29.15 "HgN/A
5:50 AM41 °FPassing clouds.12 mph100%29.15 "HgN/A
5:20 AM43 °FDrizzle. Overcast.16 mph100%29.12 "HgN/A
4:50 AM46 °FRain. Low clouds.25 mph100%29.12 "Hg1 mi
4:20 AM46 °FLight rain. Low clouds.26 mph100%29.12 "Hg1 mi
3:50 AM46 °FLight rain. Low clouds.26 mph100%29.15 "Hg1 mi
3:20 AM48 °FLow clouds.24 mph100%29.15 "Hg3 mi
2:50 AM48 °FLight rain. Mostly cloudy.24 mph100%29.18 "Hg2 mi
2:20 AM48 °FLight rain. Low clouds.23 mph100%29.18 "Hg2 mi
1:50 AM48 °FLight rain. Low clouds.23 mph100%29.18 "Hg2 mi
1:20 AM48 °FLight rain. Mostly cloudy.25 mph100%29.21 "Hg2 mi
12:50 AM48 °FMostly cloudy.24 mph100%29.21 "HgN/A
11:50 PM
Fri, Nov 27
48 °FPassing clouds.25 mph100%29.24 "Hg6 mi
11:20 PM50 °FPassing clouds.22 mph94%29.24 "HgN/A
10:50 PM50 °FPassing clouds.24 mph94%29.27 "HgN/A
10:20 PM50 °FPassing clouds.25 mph94%29.27 "HgN/A
9:50 PM50 °FPartly cloudy.26 mph94%29.30 "HgN/A
9:20 PM50 °FLight rain. Mostly cloudy.24 mph100%29.30 "Hg4 mi
8:50 PM50 °FOvercast.24 mph100%29.33 "HgN/A
8:20 PM50 °FLow clouds.28 mph100%29.33 "HgN/A
Weather by CustomWeather, © 2015

See weather overviewHow to use our weather pages